Location: Saratoga Springs
(43.0831°N, 73.7850°W)
Time: 22:33:53
(UTC-04:00)

Vanguard 1 Rocket - Pass Details

Date: 18 April 2024
Orbit: 651 x 4220 km, 34.3° (Epoch: 20 May)

Event Time Altitude Azimuth Distance (km) Brightness Sun altitude
Rises 01:23:24 0° 272° (W) 4,756 11.0 -35.5°
Reaches altitude 10° 01:26:23 10° 262° (W) 4,154 10.6 -35.4°
Enters shadow 01:26:30 10° 262° (W) 4,135 10.6 -35.4°
Maximum altitude 01:36:40 34° 203° (SSW) 3,768 - -35.1°
Drops below altitude 10° 01:53:46 10° 149° (SSE) 6,851 - -34.2°
Exits shadow 01:54:13 - 148° (SSE) 6,940 11.5 -34.2°
Sets 02:00:45 0° 142° (SE) 8,229 12.0 -33.8°
